Havre-Saint-Pierre, Quebec

9:38 AM EDT on April 23, 2017 (GMT -0400)
Havre Saint-Pierre

Weather History for CYGV - March, 2014

Change the Weather History Date:

Saturday, March 22, 2014

  Actual Average Record
Temperature  
Mean Temperature 24 °F -  
Max Temperature 30 °F 34 °F 48 °F (2012)
Min Temperature 17 °F 19 °F 1 °F (1997)
Degree Days  
Heating Degree Days 42    
Moisture  
Dew Point 17 °F    
Average Humidity 72    
Maximum Humidity 86    
Minimum Humidity 55    
Precipitation  
Precipitation 0.00 in - - ()
Sea Level Pressure  
Sea Level Pressure 29.64 in    
Wind  
Wind Speed 10 mph ()    
Max Wind Speed 18 mph    
Max Gust Speed 22 mph    
Visibility 9.0 miles    
Events Snow    
Averages and records for this station are not official NWS values.
T = Trace of Precipitation, MM = Missing Value Source: Averaged Metar Reports

Daily Weather History Graph

Daily Weather History Graph

Search for Another Location

Airport or City:

Trip Planner

Search our weather history database for the weather conditions in past years. The results will help you decide how hot, cold, wet, or windy it might be!

Date:

Astronomy

Mar. 22, 2014 Rise Set
Actual Time 6:12 AM EDT 6:30 PM EDT
Civil Twilight 5:40 AM EDT 7:03 PM EDT
Nautical Twilight 5:02 AM EDT 7:41 PM EDT
Astronomical Twilight 4:22 AM EDT 8:21 PM EDT
Moon 12:14 AM EDT (3/22) 9:22 AM EDT (3/22)
Length of Visible Light 13h 22m
Length of Day
12h 17m
Waning Gibbous, 65% of the Moon is Illuminated
Mar 22
Waning Gibbous
Mar 23
Last Quarter
Mar 30
New
Apr 7
First Quarter
Apr 15
Full

Hourly Weather History & Observations

Time (EDT) Temp. Windchill Dew Point Humidity Pressure Visibility Wind Dir Wind Speed Gust Speed Precip Events Conditions
12:00 AM 21.2 °F 12.6 °F 17.6 °F 86% 29.45 in 9.0 mi West 6.9 mph - N/A   Clear
1:00 AM 21.2 °F 7.3 °F 17.6 °F 86% 29.47 in 9.0 mi West 16.1 mph - N/A   Scattered Clouds
2:00 AM 23.0 °F 10.6 °F 17.6 °F 80% 29.51 in 9.0 mi West 13.8 mph - N/A   Mostly Cloudy
3:00 AM 19.4 °F 6.6 °F 15.8 °F 86% 29.53 in 9.0 mi WNW 12.7 mph 18.4 mph N/A   Clear
4:00 AM 19.4 °F 7.9 °F 14.0 °F 80% 29.55 in 9.0 mi West 10.4 mph - N/A   Clear
5:00 AM 19.4 °F 7.2 °F 14.0 °F 80% 29.58 in 9.0 mi West 11.5 mph - N/A   Clear
6:00 AM 19.4 °F 4.1 °F 15.8 °F 86% 29.62 in 9.0 mi West 18.4 mph - N/A   Clear
7:00 AM 17.6 °F 5.7 °F 12.2 °F 79% 29.66 in 9.0 mi West 10.4 mph - N/A   Clear
8:00 AM 21.2 °F 8.9 °F 15.8 °F 80% 29.67 in 9.0 mi West 12.7 mph - N/A   Clear
9:00 AM 24.8 °F 15.3 °F 15.8 °F 69% 29.68 in 9.0 mi West 9.2 mph - N/A   Clear
10:00 AM 28.4 °F 20.4 °F 17.6 °F 64% 29.68 in 9.0 mi West 8.1 mph - N/A   Partly Cloudy
11:00 AM 30.2 °F 22.6 °F 17.6 °F 60% 29.69 in 9.0 mi West 8.1 mph - N/A   Scattered Clouds
12:00 PM 30.2 °F 21.3 °F 15.8 °F 55% 29.70 in 9.0 mi West 10.4 mph - N/A   Clear
12:32 PM 30.2 °F 20.8 °F 17.6 °F 60% 29.69 in 9.0 mi WSW 11.5 mph - N/A Snow Light Snow
12:45 PM 30.2 °F 19.3 °F 17.6 °F 60% 29.70 in 9.0 mi West 15.0 mph - N/A   Clear
12:59 PM 30.2 °F 18.9 °F 15.8 °F 55% 29.70 in 9.0 mi WSW 16.1 mph - N/A Snow Light Snow
1:00 PM 30.2 °F 18.9 °F 15.8 °F 55% 29.70 in 9.0 mi WSW 16.1 mph - N/A Snow Light Snow
1:15 PM 30.2 °F 20.2 °F 17.6 °F 60% 29.70 in 9.0 mi WSW 12.7 mph 18.4 mph N/A   Clear
1:34 PM 30.2 °F 18.5 °F 15.8 °F 55% 29.70 in 9.0 mi West 17.3 mph - N/A Snow Light Snow
1:41 PM 30.2 °F 18.9 °F 15.8 °F 55% 29.70 in 9.0 mi West 16.1 mph - N/A   Clear
2:00 PM 30.2 °F 18.9 °F 19.4 °F 64% 29.70 in 9.0 mi West 16.1 mph - N/A   Clear
3:00 PM 28.4 °F 17.0 °F 19.4 °F 69% 29.68 in 9.0 mi West 15.0 mph 21.9 mph N/A   Clear
4:00 PM 26.6 °F 13.8 °F 19.4 °F 74% 29.67 in 9.0 mi West 17.3 mph - N/A   Clear
5:00 PM 26.6 °F 15.7 °F 19.4 °F 74% 29.67 in 9.0 mi West 12.7 mph - N/A   Clear
6:00 PM 24.8 °F 16.1 °F 17.6 °F 74% 29.67 in 9.0 mi West 8.1 mph - N/A   Clear
7:00 PM 21.2 °F 13.6 °F 15.8 °F 80% 29.67 in 9.0 mi West 5.8 mph - N/A   Scattered Clouds
8:00 PM 21.2 °F - 17.6 °F 86% 29.67 in 9.0 mi SW 2.3 mph - N/A   Overcast
9:00 PM 21.2 °F - 15.8 °F 80% 29.66 in 9.0 mi Calm Calm - N/A   Overcast
10:00 PM 19.4 °F - 15.8 °F 86% 29.64 in 9.0 mi Calm Calm - N/A   Overcast
11:00 PM 19.4 °F 11.5 °F 15.8 °F 86% 29.61 in 9.0 mi NE 5.8 mph - N/A   Overcast